{"data":{"norad_id":54249,"epoch":"2026-05-25T04:48:40.544928Z","epoch_age_seconds":67852,"freshness":"FRESH","line1":"1 54249U 22154A   26145.20046927 -.00000041  00000+0  81657-4 0  9992","line2":"2 54249  63.4070 321.2282 0074455 355.3776   4.6554 13.45439183173160","mean_motion":13.45439183,"eccentricity":0.0074455,"inclination_deg":63.407,"raan_deg":321.2282,"arg_perigee_deg":355.3776,"mean_anomaly_deg":4.6554,"bstar":8.1657e-5,"rev_number":17316,"period_min":107.02824907991,"perigee_km":1033.4888904725,"apogee_km":1144.6833096555,"semimajor_km":7467.223100064,"source":"CELESTRAK","updated_at":"2026-05-25T13:37:58.664456Z"}}